Change the Weather History Date:

Tuesday, September 24, 2013

  Actual Average Record
Temperature  
Mean Temperature 48 °F -  
Max Temperature 61 °F - - ()
Min Temperature 35 °F - - ()
Degree Days  
Heating Degree Days 17    
Moisture  
Dew Point 31 °F    
Average Humidity 54    
Maximum Humidity 85    
Minimum Humidity 20    
Precipitation  
Precipitation 0.00 in - - ()
Sea Level Pressure  
Sea Level Pressure 29.77 in    
Wind  
Wind Speed 3 mph ()    
Max Wind Speed 9 mph    
Max Gust Speed -    
T = Trace of Precipitation, MM = Missing Value Source: Averaged Metar Reports

Daily Weather History Graph

Daily Weather History Graph

Search for Another Location

Airport or City:

Trip Planner

Search our weather history database for the weather conditions in past years. The results will help you decide how hot, cold, wet, or windy it might be!

Date:

Astronomy

Sep. 24, 2013 Rise Set
Actual Time 7:20 AM MDT 7:23 PM MDT
Civil Twilight 6:47 AM MDT 7:56 PM MDT
Nautical Twilight 6:08 AM MDT 8:35 PM MDT
Astronomical Twilight 5:27 AM MDT 9:16 PM MDT
Moon 10:08 PM MDT (9/24) 1:14 PM MDT (9/24)
Length of Visible Light 13h 09m
Length of Day
12h 02m
Waning Gibbous, 72% of the Moon is Illuminated
Sep 24
Waning Gibbous
Sep 26
Last Quarter
Oct 4
New
Oct 11
First Quarter
Oct 18
Full

Hourly Weather History & Observations

Time (MDT) Temp. Windchill Dew Point Humidity Pressure Visibility Wind Dir Wind Speed Gust Speed Precip Events Conditions
12:00 AM 44 °F - 30 °F 46% 29.70 in - SW 2.3 mph - -  
12:00 AM 44.4 °F - 30.0 °F 57% 29.70 in - SW 2.3 mph - N/A   Unknown
1:00 AM 41.2 °F - 30.6 °F 66% 29.70 in - NW 2.3 mph - N/A   Unknown
2:00 AM 39.0 °F 34.8 °F 31.5 °F 74% 29.72 in - South 5.8 mph - N/A   Unknown
3:00 AM 37.6 °F 34.0 °F 30.2 °F 75% 29.74 in - SSE 4.6 mph - N/A   Unknown
4:00 AM 38.3 °F - 31.8 °F 77% 29.74 in - SSE 2.3 mph - N/A   Unknown
5:00 AM 38.1 °F 35.7 °F 33.3 °F 83% 29.76 in - SE 3.5 mph - N/A   Unknown
6:00 AM 38 °F - 32 °F 71% 29.77 in - South 3.5 mph - -  
6:00 AM 38.1 °F 35.7 °F 32.0 °F 79% 29.77 in - South 3.5 mph - N/A   Unknown
7:00 AM 36.9 °F - 30.6 °F 78% 29.79 in - Calm Calm - N/A   Unknown
8:00 AM 35.6 °F - 31.6 °F 85% 29.81 in - South 2.3 mph - N/A   Unknown
9:00 AM 41.0 °F 39.0 °F 31.8 °F 70% 29.82 in - NW 3.5 mph - N/A   Unknown
10:00 AM 42.1 °F - 31.6 °F 67% 29.84 in - ESE 1.2 mph - N/A   Unknown
11:00 AM 47.7 °F - 34.3 °F 60% 29.83 in - North 3.5 mph - N/A   Unknown
12:00 PM 52 °F - 35 °F 39% 29.82 in - West 1.2 mph - -  
12:00 PM 52.3 °F - 34.5 °F 51% 29.82 in - West 1.2 mph - N/A   Unknown
1:00 PM 55.4 °F - 34.7 °F 46% 29.80 in - NW 1.2 mph - N/A   Unknown
2:00 PM 59.2 °F - 33.6 °F 38% 29.78 in - WSW 3.5 mph - N/A   Unknown
3:00 PM 60.3 °F - 30.7 °F 33% 29.77 in - NNW 2.3 mph - N/A   Unknown
4:00 PM 61.2 °F - 30.2 °F 31% 29.75 in - North 2.3 mph - N/A   Unknown
5:00 PM 60.6 °F - 28.8 °F 30% 29.75 in - NW 2.3 mph - N/A   Unknown
6:00 PM 60 °F - 29 °F 20% 29.75 in - NNW 2.3 mph - -  
6:00 PM 59.7 °F - 29.5 °F 32% 29.75 in - NNW 2.3 mph - N/A   Unknown
7:00 PM 58.1 °F - 29.3 °F 33% 29.76 in - NNW 3.5 mph - N/A   Unknown
8:00 PM 51.1 °F - 31.1 °F 46% 29.78 in - NNE 5.8 mph - N/A   Unknown
9:00 PM 50.9 °F - 29.5 °F 44% 29.79 in - NE 9.2 mph - N/A   Unknown
10:00 PM 49.8 °F - 28.9 °F 45% 29.80 in - NNE 5.8 mph - N/A   Unknown
11:00 PM 46.8 °F - 28.0 °F 48% 29.80 in - NE 9.2 mph - N/A   Unknown